TimeMDT,TemperatureF,Dew PointF,Humidity,Sea Level PressureIn,VisibilityMPH,Wind Direction,Wind SpeedMPH,Gust SpeedMPH,PrecipitationIn,Events,Conditions,WindDirDegrees,DateUTC
12:53 AM,73.0,54.0,51,29.82,10.0,ESE,17.3,-,N/A,,Clear,110,2013-07-20 06:53:00
1:53 AM,73.9,53.1,48,29.81,10.0,ESE,17.3,-,N/A,,Clear,110,2013-07-20 07:53:00
2:53 AM,72.0,53.1,51,29.81,10.0,ESE,17.3,-,N/A,,Clear,110,2013-07-20 08:53:00
3:53 AM,73.0,52.0,48,29.81,10.0,ESE,18.4,-,N/A,,Clear,110,2013-07-20 09:53:00
4:53 AM,69.1,54.0,58,29.82,10.0,East,11.5,-,N/A,,Clear,100,2013-07-20 10:53:00
5:53 AM,66.9,54.0,63,29.83,10.0,East,11.5,-,N/A,,Clear,90,2013-07-20 11:53:00
6:53 AM,66.9,55.0,66,29.86,10.0,East,9.2,-,N/A,,Clear,90,2013-07-20 12:53:00
7:53 AM,73.9,54.0,50,29.85,10.0,ESE,11.5,-,N/A,,Clear,120,2013-07-20 13:53:00
8:53 AM,75.9,53.1,45,29.88,10.0,SE,9.2,-,N/A,,Clear,130,2013-07-20 14:53:00
9:53 AM,79.0,53.1,40,29.86,10.0,SE,8.1,-,N/A,,Clear,140,2013-07-20 15:53:00
10:53 AM,81.0,53.1,38,29.84,10.0,SE,6.9,-,N/A,,Clear,130,2013-07-20 16:53:00
11:53 AM,84.9,52.0,32,29.82,10.0,SW,3.5,-,N/A,,Clear,230,2013-07-20 17:53:00
12:53 PM,88.0,52.0,29,29.79,10.0,Variable,5.8,-,N/A,,Clear,0,2013-07-20 18:53:00
1:53 PM,91.0,44.1,20,29.75,10.0,WSW,6.9,-,N/A,,Clear,240,2013-07-20 19:53:00
2:53 PM,91.0,42.1,18,29.73,10.0,SSW,5.8,-,N/A,,Clear,210,2013-07-20 20:53:00
3:53 PM,93.9,42.1,17,29.70,10.0,Variable,3.5,-,N/A,,Clear,0,2013-07-20 21:53:00
4:53 PM,93.9,37.0,14,29.68,10.0,Variable,4.6,-,N/A,,Scattered Clouds,0,2013-07-20 22:53:00
5:53 PM,93.9,39.9,15,29.65,10.0,West,11.5,-,N/A,,Scattered Clouds,280,2013-07-20 23:53:00
6:53 PM,93.0,39.0,15,29.65,10.0,WNW,8.1,-,N/A,,Partly Cloudy,290,2013-07-21 00:53:00
7:53 PM,90.0,42.1,19,29.64,10.0,WNW,4.6,-,N/A,,Partly Cloudy,300,2013-07-21 01:53:00
8:53 PM,84.9,37.9,19,29.65,10.0,North,3.5,-,N/A,,Clear,360,2013-07-21 02:53:00
9:53 PM,80.1,39.0,23,29.68,10.0,Calm,Calm,-,N/A,,Clear,0,2013-07-21 03:53:00
10:53 PM,77.0,39.9,26,29.68,10.0,ESE,4.6,-,N/A,,Clear,120,2013-07-21 04:53:00
11:53 PM,77.0,42.1,29,29.69,10.0,East,4.6,-,N/A,,Clear,100,2013-07-21 05:53:00